Flag for Portugal Weather past 2 weeks in Beja, Portugal

Now
82 °F

Sunny.


Feels Like: 82 °F
Forecast: 59 / 84 °F
Wind: 16 mph from Northwest

Location: Beja Airport

Current Time: Jul 24, 2014 at 6:42:23 PM

Latest Report: Jul 24, 2014 at 6:00 PM


Visibility: 10 mi

Pressure: 29.89 "Hg

Humidity: 40%

Dew point: 55 °F

Location of BejaLocation

Historic Weather in Beja — Graph

°F

Beja temperature yesterday

Maximum temperature yesterday: 88 °F (at 5:00 PM)
Minimum temperature yesterday: 61 °F (at 5:00 AM)
Average temperature yesterday: 74 °F

Past Weeks' High & Low Weather Summary

 TemperatureHumidityPressure
High99 °F (Jul 16, 2:00 PM)100% (Jul 13, 8:00 AM)30.18 "Hg (Jul 13, 8:00 AM)
Low57 °F (Jul 13, 6:00 AM)11% (Jul 11, 4:00 PM)29.89 "Hg (Jul 23, 5:00 PM)
Average75 °F53%30.01 "Hg
* Reported Jul 9 5:00 PM — Jul 24 5:00 PM, Beja, Weather by CustomWeather, © 2014

Note: Actual official high and low records may vary slightly from our data, if they occured in-between our weather recording intervals... More about our weather records

Advertising

Beja weather history for previous 24 hours

 ConditionsComfort  
Time TempWeatherWind HumidityBarometerVisibility
5:00 PM
Jul 24
82 °FPassing clouds.12 mph37%29.89 "HgN/A
4:00 PM79 °FPassing clouds.13 mph45%29.89 "HgN/A
3:00 PM79 °FPassing clouds.13 mph45%29.92 "HgN/A
2:00 PM77 °FPassing clouds.12 mph47%29.92 "HgN/A
1:00 PM77 °FPassing clouds.12 mph47%29.92 "HgN/A
12:00 PM73 °FPassing clouds.13 mph53%29.95 "HgN/A
11:00 AM72 °FPassing clouds.12 mph61%29.95 "HgN/A
10:00 AM66 °FScattered clouds.10 mph73%29.95 "HgN/A
9:00 AM64 °FPartly sunny.8 mph83%29.95 "HgN/A
8:00 AM63 °FBroken clouds.7 mph88%29.95 "HgN/A
7:00 AM61 °FPassing clouds.7 mph88%29.95 "Hg5 mi
6:00 AM61 °FPartly cloudy.9 mph88%29.95 "Hg5 mi
5:00 AM59 °FClear.12 mph94%29.92 "Hg10 mi
4:00 AM59 °FClear.10 mph94%29.92 "Hg10 mi
3:00 AM61 °FClear.8 mph88%29.95 "Hg10 mi
2:00 AM61 °FClear.7 mph88%29.95 "Hg10 mi
1:00 AM63 °FClear.10 mph83%29.98 "Hg10 mi
12:00 AM64 °FClear.8 mph78%29.98 "Hg10 mi
11:00 PM
Jul 23
68 °FClear.12 mph69%29.95 "Hg10 mi
10:00 PM72 °FClear.13 mph61%29.95 "Hg10 mi
9:00 PM75 °FSunny.15 mph50%29.92 "Hg10 mi
8:00 PM81 °FSunny.15 mph39%29.92 "Hg10 mi
7:00 PM84 °FSunny.16 mph33%29.89 "Hg10 mi
6:00 PM88 °FSunny.16 mph29%29.89 "Hg10 mi
Weather by CustomWeather, © 2014

See weather overviewHow to use our weather pages